Location: Libas
(9.8833°N, 125.9833°E)
Time: 21:15:11
(UTC+00:00)

Cosmos 1092 Rocket - Pass Details

Date: 27 October 2020
Orbit: 955 x 994 km, 83.0° (Epoch: 25 November)

Event Time Altitude Azimuth Distance (km) Brightness Sun altitude
Rises 19:43:58 0° 175° (S) 3,623 7.2 -25.4°
Reaches altitude 10° 19:46:29 10° 172° (S) 2,678 6.5 -24.8°
Maximum altitude 19:52:31 61° 92° (E) 1,073 4.4 -23.3°
Drops below altitude 10° 19:58:33 10° 13° (NNE) 2,690 6.3 -21.9°
Sets 20:01:05 0° 10° (N) 3,641 7.0 -21.3°
